Location: B?ogocice
(50.2413°N, 20.2361°E)
Time: 16:07:35
(UTC+00:00)

ARIANE 6 FM1 Upper Stage - Pass Details

Date: 23 August 2024
Orbit: 567 x 594 km, 62.0° (Epoch: 10 September)

Event Time Altitude Azimuth Distance (km) Brightness Sun altitude
Exits shadow 01:51:20 - 163° (SSE) 2,496 5.7 -15.9°
Reaches altitude 10° 01:53:47 10° 140° (SE) 1,901 5.4 -15.6°
Maximum altitude 01:55:38 13° 114° (ESE) 1,740 5.5 -15.4°
Drops below altitude 10° 01:57:31 10° 88° (E) 1,916 6.2 -15.1°
Sets 02:00:57 0° 60° (ENE) 2,830 8.0 -14.7°
